Tracking 25195 objects as of 21-Jan-2022
HD Live streaming from Space Station
objects crossing your sky now

HELLAS-SAT 2

Track HELLAS-SAT 2 now!
HELLAS-SAT 2 is classified as:


NORAD ID: 27811
Int'l Code: 2003-020A
Perigee: 35,716.6 km
Apogee: 35,778.7 km
Inclination: 3.3 °
Period: 1,433.7 minutes
Semi major axis: 42118 km
RCS: 15.8489 m2 (large)
Launch date: May 13, 2003
Source: Greece (GREC)
Launch site: AIR FORCE EASTERN TEST RANGE (AFETR)

30 Ku-band; television broadcasting services for the 2004 Summer Olympic Games in Athens.
aabbcc
Your satellite tracking list
Your tracking list is empty




NASA's NSSDC Master Catalog

Two Line Element Set (TLE):
1 27811U 03020A   22020.51850052 -.00000267  00000-0  00000-0 0  9992
2 27811   3.3192  86.1902 0007363 212.0043 299.0554  1.00436468 26718
Source of the keplerian elements: AFSPC